User: anonymous   Login
Location: Kalberh�ni
(46.4610°N, 7.2453°E)
Time: 10:33:34
(UTC+00:00)
Language:

Meteor 2-10 Rocket - Orbit

View from above orbital plane
View from above orbital plane
View from above satellite
View from above satellite

Ground track
Ground track

The orbit data is extracted from the following two-line orbital elements,

1 14453U 83109B   21259.52004190  .00000038  00000-0  10562-4 0  9997
2 14453  81.1697 344.5549 0103807 252.2617 106.7211 14.24755089968498
Epoch (UTC): 16 September 2021 12:28:51
Eccentricity: 0.0103807
inclination: 81.1697°
perigee height: 735 km
apogee height: 884 km
right ascension of ascending node: 344.5549°
argument of perigee: 252.2617°
revolutions per day: 14.24755089
mean anomaly at epoch: 106.7211°
orbit number at epoch: 96849

The dashed part of the orbit path shows where the satellite is in the earth's shadow,  

DLR